EW9831 Weather Reports


Display with metric or nautical units.
time (UTC)temp
F
wind
direction
speed
MPH
gust
MPH
rain 1hr
in
rain 24hr
in
rain mn
in
humidity
%
barometer
mb
20201129194604 55 90 6.0 6.0 0.00 0.09 0.00 71 1014.7
20201129194110 55 80 5.0 5.0 0.00 0.09 0.00 71 1014.8
20201129193610 55 80 5.0 5.0 0.00 0.09 0.00 71 1014.8
20201129193109 55 80 5.0 5.0 0.00 0.09 0.00 70 1014.7
20201129192618 55 80 5.0 5.0 0.00 0.09 0.00 70 1014.7
20201129192105 55 80 5.0 5.0 0.00 0.09 0.00 70 1014.5
20201129191603 55 80 5.0 5.0 0.00 0.09 0.00 70 1014.5
20201129191110 55 50 5.0 5.0 0.00 0.09 0.00 69 1014.5
20201129190606 55 50 5.0 5.0 0.00 0.09 0.00 69 1014.5
20201129190107 56 50 5.0 5.0 0.00 0.09 0.00 69 1014.3
20201129185603 56 50 5.0 5.0 0.00 0.09 0.00 69 1014.3
20201129185105 56 50 5.0 5.0 0.00 0.09 0.00 69 1014.4
20201129184603 56 50 5.0 5.0 0.00 0.10 0.00 69 1014.4
20201129184104 56 50 5.0 5.0 0.00 0.10 0.00 69 1014.3
20201129183606 56 50 5.0 5.0 0.00 0.10 0.00 69 1014.3
20201129183104 56 50 5.0 5.0 0.00 0.10 0.00 69 1014.2
20201129182604 56 50 5.0 5.0 0.00 0.10 0.00 69 1014.2
20201129182104 56 50 5.0 5.0 0.00 0.10 0.00 69 1014.0
20201129181604 56 50 5.0 5.0 0.00 0.10 0.00 69 1014.0
20201129181104 56 60 5.0 5.0 0.00 0.10 0.00 69 1013.9
20201129150108 59 90 6.0 6.0 0.00 0.11 0.00 68 1012.4
20201129145607 59 90 6.0 6.0 0.00 0.11 0.00 68 1012.4
20201129145110 59 90 6.0 6.0 0.00 0.11 0.00 68 1012.4
20201129144606 59 90 6.0 8.0 0.00 0.11 0.00 69 1012.3
20201129144105 59 100 8.0 8.0 0.00 0.11 0.00 69 1012.3
20201129143608 59 100 8.0 8.0 0.00 0.11 0.00 69 1012.4
20201129143105 59 100 8.0 8.0 0.00 0.11 0.00 69 1012.4
20201129142604 59 100 8.0 8.0 0.00 0.11 0.00 69 1012.4
20201129142103 59 100 8.0 8.0 0.00 0.11 0.00 69 1012.4
20201129141606 59 100 8.0 10.0 0.00 0.11 0.00 69 1012.5
20201129141104 59 120 10.0 10.0 0.00 0.11 0.00 69 1012.5
20201129140604 59 120 10.0 10.0 0.00 0.11 0.00 68 1012.5
20201129140105 59 120 10.0 10.0 0.00 0.11 0.00 68 1012.5
20201129135603 60 120 10.0 10.0 0.00 0.11 0.00 68 1012.6
20201129135104 60 120 10.0 10.0 0.00 0.11 0.00 68 1012.6
20201129134623 60 120 10.0 12.0 0.00 0.11 0.00 67 1012.6
20201129134110 60 110 12.0 12.0 0.00 0.11 0.00 67 1012.6
20201129133605 60 110 12.0 12.0 0.00 0.11 0.00 67 1012.5
20201129133104 60 110 12.0 12.0 0.00 0.11 0.00 67 1012.5
20201129132604 60 110 12.0 12.0 0.00 0.11 0.00 68 1012.5
20201129132105 60 110 12.0 12.0 0.00 0.11 0.00 68 1012.5
20201129131612 60 110 12.0 12.0 0.00 0.11 0.00 67 1012.4
20201129131104 60 120 9.0 9.0 0.00 0.11 0.00 67 1012.4
20201129130606 60 120 9.0 9.0 0.00 0.11 0.00 67 1012.5
20201129130105 60 120 9.0 9.0 0.00 0.11 0.00 67 1012.5
20201129125603 60 120 9.0 9.0 0.00 0.11 0.00 65 1012.5
20201129125105 60 120 9.0 9.0 0.00 0.11 0.00 65 1012.5
20201129124604 60 120 9.0 12.0 0.00 0.11 0.00 66 1012.5
20201129124105 60 130 12.0 12.0 0.00 0.11 0.00 66 1012.5
20201129123606 60 130 12.0 12.0 0.00 0.11 0.00 65 1012.6
20201129123104 60 130 12.0 12.0 0.00 0.11 0.00 65 1012.6
20201129122604 60 130 12.0 12.0 0.00 0.11 0.00 66 1012.6
20201129122105 60 130 12.0 12.0 0.00 0.11 0.00 66 1012.6
20201129121604 60 130 12.0 12.0 0.00 0.11 0.00 66 1012.6
20201129121103 60 120 12.0 12.0 0.00 0.11 0.00 66 1012.6
20201129120604 60 120 12.0 12.0 0.00 0.11 0.00 66 1012.7
20201129120104 60 120 12.0 12.0 0.00 0.11 0.00 66 1012.7
20201129115607 60 120 12.0 12.0 0.00 0.11 0.00 67 1012.6
20201129115104 60 120 12.0 12.0 0.00 0.11 0.00 67 1012.6
20201129114604 60 120 12.0 12.0 0.00 0.11 0.00 69 1012.7
20201129114107 60 130 12.0 12.0 0.00 0.11 0.00 69 1012.7
20201129113606 59 130 12.0 12.0 0.00 0.11 0.00 70 1012.8
20201129113105 59 130 12.0 12.0 0.00 0.11 0.00 70 1012.8
20201129112604 59 130 12.0 12.0 0.00 0.11 0.00 72 1012.9
20201129112104 59 130 12.0 12.0 0.00 0.11 0.00 72 1012.9
20201129111606 58 130 12.0 12.0 0.00 0.11 0.00 73 1013.0
20201129111105 58 110 8.0 8.0 0.00 0.11 0.00 73 1013.0
20201129110604 58 110 8.0 8.0 0.00 0.11 0.00 74 1013.0
20201129110104 58 110 8.0 8.0 0.00 0.11 0.00 74 1013.0
20201129105604 57 110 8.0 8.0 0.00 0.11 0.00 74 1013.0
20201129105104 57 110 8.0 8.0 0.00 0.11 0.00 74 1013.0
20201129104605 57 110 8.0 9.0 0.00 0.11 0.00 75 1012.9
20201129104104 57 110 9.0 9.0 0.00 0.11 0.00 75 1012.9
20201129103604 56 110 9.0 9.0 0.00 0.11 0.00 76 1012.9
20201129103106 56 110 9.0 9.0 0.00 0.11 0.00 76 1012.9
20201129102603 56 110 9.0 9.0 0.00 0.11 0.00 77 1012.7
20201129102105 56 110 9.0 9.0 0.00 0.11 0.00 77 1012.7
20201129101605 55 110 9.0 9.0 0.00 0.11 0.00 78 1012.6
20201129101104 55 110 8.0 8.0 0.00 0.11 0.00 78 1012.6
20201129100604 55 110 8.0 8.0 0.00 0.11 0.00 80 1012.4
20201129100105 55 110 8.0 8.0 0.00 0.11 0.00 80 1012.4
20201129095604 54 110 8.0 8.0 0.00 0.11 0.00 82 1012.3
20201129095104 54 110 8.0 8.0 0.00 0.11 0.00 82 1012.3
20201129094606 52 110 8.0 8.0 0.00 0.11 0.00 86 1012.2
20201129094104 52 110 8.0 8.0 0.00 0.11 0.00 86 1012.2
20201129093605 51 110 8.0 8.0 0.00 0.11 0.00 89 1012.1
20201129093104 51 110 8.0 8.0 0.00 0.11 0.00 89 1012.1
20201129092606 50 110 8.0 8.0 0.00 0.11 0.00 91 1012.1
20201129092104 50 110 8.0 8.0 0.00 0.11 0.00 91 1012.1
20201129091606 49 110 8.0 8.0 0.00 0.11 0.00 91 1012.0
20201129091105 49 110 8.0 8.0 0.00 0.11 0.00 91 1012.0
20201129090606 48 110 8.0 8.0 0.00 0.11 0.00 90 1011.9
20201129090105 48 110 8.0 8.0 0.00 0.11 0.00 90 1011.9
20201129085604 48 110 8.0 8.0 0.00 0.11 0.00 89 1011.6
20201129085106 48 110 8.0 8.0 0.00 0.11 0.00 89 1011.6
20201129084605 48 110 8.0 8.0 0.00 0.11 0.00 89 1011.4
20201129084105 48 120 8.0 8.0 0.00 0.11 0.00 89 1011.4
20201129083605 48 120 8.0 8.0 0.00 0.11 0.00 89 1011.2
20201129083105 48 120 8.0 8.0 0.00 0.11 0.00 89 1011.2
20201129082604 48 120 8.0 8.0 0.00 0.11 0.00 89 1011.0
20201129082105 48 120 8.0 8.0 0.00 0.11 0.00 89 1011.0
20201129081608 48 120 8.0 9.0 0.00 0.11 0.00 88 1010.9
20201129081104 48 120 9.0 9.0 0.00 0.11 0.00 88 1010.9
20201129080614 48 120 9.0 9.0 0.00 0.11 0.00 88 1010.8
20201129080108 48 120 9.0 9.0 0.00 0.11 0.00 88 1010.8
20201129075604 48 120 9.0 9.0 0.00 0.11 0.00 88 1010.6
20201129075105 48 120 9.0 9.0 0.00 0.11 0.00 88 1010.6
20201129074604 48 120 9.0 9.0 0.00 0.11 0.00 88 1010.5
20201129074105 48 120 8.0 8.0 0.00 0.11 0.00 88 1010.5
20201129073604 48 120 8.0 8.0 0.00 0.11 0.00 88 1010.4
20201129073108 48 120 8.0 8.0 0.00 0.11 0.00 88 1010.4
20201129072605 48 120 8.0 8.0 0.00 0.11 0.00 88 1010.2
20201129072107 48 120 8.0 8.0 0.00 0.11 0.00 88 1010.2
20201129071605 49 120 8.0 9.0 0.00 0.11 0.00 88 1010.1
20201129071105 49 110 9.0 9.0 0.00 0.11 0.00 88 1010.1
20201129070605 49 110 9.0 9.0 0.00 0.11 0.00 88 1009.8
20201129070107 49 110 9.0 9.0 0.00 0.11 0.00 88 1009.8
20201129065604 49 110 9.0 9.0 0.00 0.11 0.00 88 1009.6
20201129065106 49 110 9.0 9.0 0.00 0.11 0.00 88 1009.6
20201129064604 49 110 9.0 9.0 0.00 0.11 0.00 88 1009.5
20201129064105 49 110 9.0 9.0 0.00 0.11 0.00 88 1009.5
20201129063606 49 110 9.0 9.0 0.00 0.11 0.00 89 1009.4
20201129063104 49 110 9.0 9.0 0.00 0.11 0.00 89 1009.4
20201129062605 49 110 9.0 9.0 0.00 0.11 0.00 89 1009.3
20201129062106 49 110 9.0 9.0 0.00 0.11 0.00 89 1009.3
20201129061607 49 110 9.0 9.0 0.00 0.11 0.00 88 1009.2
20201129061105 49 120 8.0 8.0 0.00 0.11 0.00 88 1009.2
20201129060606 49 120 8.0 8.0 0.00 0.11 0.00 89 1009.0
20201129060133 49 120 8.0 8.0 0.00 0.11 0.00 89 1009.0
20201129055613 49 120 8.0 8.0 0.00 0.11 0.00 89 1008.9
20201129055108 49 120 8.0 8.0 0.00 0.11 0.00 89 1008.9
20201129054604 49 120 8.0 9.0 0.00 0.11 0.00 89 1008.8
20201129054104 49 110 9.0 9.0 0.00 0.11 0.00 89 1008.8
20201128202603 52 140 14.0 14.0 0.01 0.04 0.04 90 1004.6